Regional Weather Roundup
Issued by NWS

Home | Current Version | Previous Version | Graphics & Text | Print | Product List | Glossary On
Versions: 1 2 3 4 5 6 7 8 9 10 11 12 13 14 15 16 17 18 19 20 21 22 23 24 25 26 27
000
ASUS45 KCYS 181310
RWRWY

WYOMING REGIONAL WEATHER ROUNDUP
NATIONAL WEATHER SERVICE CHEYENNE WY
600 AM MST SUN FEB 18 2018

NOTE:  "FAIR" INDICATES FEW OR NO CLOUDS BELOW 12,000 FEET
WITH NO SIGNIFICANT WEATHER AND/OR OBSTRUCTIONS TO VISIBILITY.

WYZ001-181400-
YELLOWSTONE NATIONAL PARK

CITY           SKY/WX    TMP DP  RH WIND       PRES   REMARKS
LK YELLOWSTONE   N/A     23  22  96 W3        29.42S
W YELLOWSTONE  NOT AVBL

$$
WYZ002>013-054>058-071-098>099-181400-
NORTHERN WYOMING

CITY           SKY/WX    TMP DP  RH WIND       PRES   REMARKS
JACKSON        LGT SNOW  30  30 100 SW25G33   29.45S FOG     WCI  16
CODY           LGT SNOW  17  15  92 N12G22    29.52R VSB 3/4 WCI   4
GREYBULL       FLURRIES  28  25  88 NW24      29.46R WCI  14
WORLAND        CLOUDY    31  28  89 SW7       29.46R WCI  24
SHERIDAN       LGT SNOW  18  15  88 NW25G37   29.61R VSB 1   WCI   0
BUFFALO        LGT SNOW  21  19  92 N21       29.51R FOG     WCI   5
GILLETTE       LGT SNOW  29  28  96 N6        29.50F FOG     WCI  23
HULETT         LGT SNOW  32  30  93 W5        29.50R VSB 1   WCI  27
NEWCASTLE      FAIR      32  23  69 N14       29.44S WCI  22

$$
WYZ014>020-022>026-101>103-181400-
CENTRAL WYOMING

CITY           SKY/WX    TMP DP  RH WIND       PRES   REMARKS
BIG PINEY      FAIR      29  24  82 S5        29.50F WCI  24
PINEDALE       PTSUNNY   32  25  74 W18G28    29.51S WCI  20
DUBOIS           N/A    N/A N/A N/A MISG        N/A
LANDER         FAIR      41  24  51 W20G38    29.38F
RIVERTON       FAIR      35  21  56 NW13      29.41S WCI  26
CASPER         FAIR      40  17  39 SW32G45   29.43F WCI  28
DOUGLAS        FAIR      46  18  32 W18G35    29.41R

$$
WYZ021-027>030-104>119-181400-
SOUTHERN WYOMING

CITY           SKY/WX    TMP DP  RH WIND       PRES   REMARKS
EVANSTON       CLOUDY    39  14  36 SW30G38   29.57F WCI  27
FORT BRIDGER   FAIR      40  12  31 W33G44    29.55S WCI  29
ROCK SPRINGS   FAIR      40  11  30 SW22      29.54F WCI  30
DIXON          FAIR      36  17  45 S26G33    29.68F WCI  24
RAWLINS        FAIR      36  16  44 SW33G45   29.54F WCI  22
SARATOGA       FAIR      37  12  35 SW25G46   29.59F WCI  26
LARAMIE        FAIR      35  13  40 SW17G25   29.58F WCI  25
CHEYENNE       FAIR      34   9  35 CALM      29.58R
TORRINGTON     FAIR      46  15  28 SW13      29.49S
PINE BLUFFS    FAIR      32  14  47 MISG      29.56F

$$




USA.gov is the U.S. government's official web portal to all federal, state and local government web resources and services.